Terminal Aerodrome Forecast
Issued by NWS Houston/Galveston TX

Home | Current Version | Previous Version | Text Only | Print | Product List | Glossary On
Versions: 1 2 3 4 5 6 7 8 9 10 11 12 13 14 15 16 17 18 19 20 21 22 23 24 25 26 27 28 29 30 31 32 33 34 35 36 37 38 39 40 41 42 43 44 45 46 47 48 49 50
000
FTUS44 KHGX 282101 AAA
TAFHOU
TAF AMD
KHOU 282101Z 2821/2918 36007KT 3SM -RA BR BKN007 OVC020
     FM282200 36007KT P6SM BKN007 OVC020
     FM290200 33004KT 6SM BR OVC010
     FM290500 35005KT 4SM BR OVC005
     FM291500 02004KT 6SM BR OVC015=

USA.gov is the U.S. government's official web portal to all federal, state and local government web resources and services.